TimeEDT,TemperatureF,Dew PointF,Humidity,Sea Level PressureIn,VisibilityMPH,Wind Direction,Wind SpeedMPH,Gust SpeedMPH,PrecipitationIn,Events,Conditions,WindDirDegrees,DateUTC
12:51 AM,48.0,43.0,83,29.96,10.0,North,6.9,-,N/A,,Overcast,360,2011-11-04 04:51:00
1:30 AM,46.4,42.8,87,29.96,10.0,North,9.2,-,N/A,,Overcast,350,2011-11-04 05:30:00
1:51 AM,46.4,42.8,87,29.96,10.0,North,11.5,-,N/A,,Overcast,10,2011-11-04 05:51:00
2:51 AM,44.6,39.2,81,29.97,10.0,North,10.4,-,N/A,,Light Drizzle,10,2011-11-04 06:51:00
3:51 AM,45.0,37.9,76,29.98,10.0,North,10.4,-,0.00,,Overcast,10,2011-11-04 07:51:00
4:33 AM,44.6,37.4,76,30.00,10.0,NNE,9.2,-,N/A,,Overcast,20,2011-11-04 08:33:00
4:51 AM,44.1,37.9,79,30.02,10.0,North,5.8,-,N/A,,Overcast,10,2011-11-04 08:51:00
5:51 AM,43.0,37.9,82,30.04,10.0,NNW,6.9,-,N/A,,Mostly Cloudy,340,2011-11-04 09:51:00
6:51 AM,42.1,37.0,82,30.05,10.0,North,8.1,-,N/A,,Mostly Cloudy,350,2011-11-04 10:51:00
7:51 AM,41.0,30.9,67,30.08,10.0,NNW,8.1,-,N/A,,Mostly Cloudy,340,2011-11-04 11:51:00
8:51 AM,39.9,30.9,70,30.11,10.0,NNW,5.8,-,N/A,,Mostly Cloudy,340,2011-11-04 12:51:00
9:51 AM,43.0,32.0,65,30.12,10.0,NW,4.6,-,N/A,,Scattered Clouds,310,2011-11-04 13:51:00
10:51 AM,44.1,28.0,53,30.13,10.0,NNW,8.1,-,N/A,,Scattered Clouds,340,2011-11-04 14:51:00
11:51 AM,46.9,26.1,44,30.12,10.0,NNW,13.8,17.3,N/A,,Scattered Clouds,340,2011-11-04 15:51:00
12:51 PM,46.9,21.9,37,30.11,10.0,NNW,9.2,19.6,N/A,,Scattered Clouds,340,2011-11-04 16:51:00
1:51 PM,48.0,24.1,39,30.10,10.0,North,10.4,19.6,N/A,,Scattered Clouds,360,2011-11-04 17:51:00
2:51 PM,48.9,21.0,33,30.11,10.0,North,15.0,25.3,N/A,,Scattered Clouds,360,2011-11-04 18:51:00
3:51 PM,48.0,21.0,34,30.12,10.0,NNW,12.7,21.9,N/A,,Scattered Clouds,340,2011-11-04 19:51:00
4:51 PM,46.0,21.0,37,30.16,10.0,NNE,15.0,21.9,N/A,,Partly Cloudy,20,2011-11-04 20:51:00
5:51 PM,43.0,21.0,42,30.20,10.0,North,15.0,20.7,N/A,,Partly Cloudy,350,2011-11-04 21:51:00
6:51 PM,39.0,23.0,53,30.25,10.0,NNE,8.1,-,N/A,,Clear,30,2011-11-04 22:51:00
7:51 PM,39.0,21.9,50,30.27,10.0,North,4.6,-,N/A,,Scattered Clouds,350,2011-11-04 23:51:00
8:51 PM,36.0,23.0,59,30.30,10.0,North,5.8,-,N/A,,Mostly Cloudy,10,2011-11-05 00:51:00
9:51 PM,37.0,27.0,67,30.32,10.0,North,8.1,-,N/A,,Partly Cloudy,10,2011-11-05 01:51:00
10:51 PM,35.1,26.1,70,30.33,10.0,North,4.6,-,N/A,,Clear,350,2011-11-05 02:51:00
11:51 PM,34.0,24.1,67,30.35,10.0,NW,4.6,-,N/A,,Clear,320,2011-11-05 03:51:00